Location: Nairn
(57.5833°N, 3.8667°W)
Time: 02:19:22
(UTC+00:00)

Vanguard 1 Rocket - Pass Details

Date: 05 December 2020
Orbit: 655 x 4221 km, 34.3° (Epoch: 20 January)

Event Time Altitude Azimuth Distance (km) Brightness Sun altitude
Exits shadow 03:22:27 36° 193° (SSW) 4,996 10.7 -40.3°
Maximum altitude 03:22:48 36° 192° (SSW) 4,976 10.7 -40.2°
Drops below altitude 10° 03:38:17 10° 135° (SE) 5,498 11.6 -38.3°
Sets 03:42:12 0° 126° (SE) 6,071 12.0 -37.8°
